Weather History for Gainesville, GA

Change the Weather History Date:

Sunday, November 4, 2012

  Actual Average Record
Temperature  
Mean Temperature 60 °F 56 °F  
Max Temperature 68 °F 66 °F 83 °F (1946)
Min Temperature 48 °F 47 °F 22 °F (1937)
Degree Days  
Heating Degree Days 6 9  
Month to date heating degree days 35  
Since 1 July heating degree days 193  
Growing Degree Days 10 (Base 50)    
Moisture  
Dew Point 49 °F    
Average Humidity 68    
Maximum Humidity 81    
Minimum Humidity 56    
Precipitation  
Precipitation 0.01 in 0.11 in 1.14 in (1968)
Month to date precipitation 0.42  
Year to date precipitation 45.43  
Sea Level Pressure  
Sea Level Pressure 29.98 in    
Wind  
Wind Speed 8 mph (WNW)    
Max Wind Speed 15 mph    
Max Gust Speed 26 mph    
Visibility 10 miles    
Events Rain    
T = Trace of Precipitation, MM = Missing Value Source: NWS Daily Summary

Daily Weather History Graph

Daily Weather History Graph

Search for Another Location

Airport:

Trip Planner

Search our weather history database for the weather conditions in past years. The results will help you decide how hot, cold, wet, or windy it might be!

Date:

Astronomy

Nov. 04, 2012 Rise Set
Actual Time 6:58 AM EST 5:38 PM EST
Civil Twilight 6:32 AM EST 6:05 PM EST
Nautical Twilight 6:02 AM EST 6:34 PM EST
Astronomical Twilight 5:33 AM EST 7:04 PM EST
Moon 10:18 PM EST (11/4) 11:38 AM EST (11/4)
Length of Visible Light 11h 32m
Length of Day
10h 40m
Waning Gibbous, 72% of the Moon is Illuminated
Nov 4
Waning Gibbous
Nov 6
Last Quarter
Nov 13
New
Nov 20
First Quarter
Nov 28
Full

Hourly Weather History & Observations

Time (EST) Temp. Dew Point Humidity Pressure Visibility Wind Dir Wind Speed Gust Speed Precip Events Conditions
12:53 AM 60.1 °F 51.1 °F 72% 29.99 in 10.0 mi WSW 5.8 mph - N/A   Clear
1:53 AM 62.1 °F 53.1 °F 72% 29.99 in 10.0 mi West 5.8 mph - N/A   Partly Cloudy
1:53 AM 63.0 °F 52.0 °F 67% 29.99 in 10.0 mi West 10.4 mph - N/A   Clear
2:53 AM 62.1 °F 52.0 °F 70% 29.96 in 10.0 mi West 6.9 mph - N/A   Clear
3:53 AM 60.1 °F 53.1 °F 78% 29.96 in 10.0 mi West 4.6 mph - N/A   Clear
4:53 AM 57.9 °F 52.0 °F 81% 29.97 in 10.0 mi West 5.8 mph - N/A   Clear
5:53 AM 59.0 °F 52.0 °F 78% 29.98 in 10.0 mi West 9.2 mph - N/A   Clear
6:53 AM 57.9 °F 51.1 °F 78% 29.99 in 10.0 mi West 6.9 mph - N/A   Clear
7:53 AM 59.0 °F 51.1 °F 75% 30.00 in 10.0 mi West 6.9 mph - N/A   Clear
8:53 AM 61.0 °F 52.0 °F 72% 30.00 in 10.0 mi West 9.2 mph - N/A   Clear
9:53 AM 64.0 °F 53.1 °F 67% 30.00 in 10.0 mi West 10.4 mph - N/A   Clear
10:53 AM 66.9 °F 54.0 °F 63% 30.00 in 10.0 mi WNW 13.8 mph 26.5 mph N/A   Partly Cloudy
11:53 AM 68.0 °F 54.0 °F 61% 29.99 in 10.0 mi WNW 11.5 mph 20.7 mph N/A   Clear
12:53 PM 64.9 °F 51.1 °F 61% 29.99 in 10.0 mi West 11.5 mph 19.6 mph N/A   Partly Cloudy
1:53 PM 61.0 °F 54.0 °F 78% 29.95 in 9.0 mi NW 8.1 mph - 0.00 in Rain Light Rain
2:53 PM 62.1 °F 55.9 °F 80% 29.95 in 10.0 mi West 8.1 mph - 0.01 in   Partly Cloudy
3:53 PM 64.0 °F 50.0 °F 60% 29.96 in 10.0 mi West 15.0 mph 20.7 mph N/A   Partly Cloudy
4:53 PM 62.1 °F 46.0 °F 56% 29.97 in 10.0 mi WNW 10.4 mph - N/A   Clear
5:53 PM 59.0 °F 44.1 °F 58% 29.98 in 10.0 mi West 11.5 mph - N/A   Clear
6:53 PM 57.0 °F 44.1 °F 62% 29.99 in 10.0 mi NW 9.2 mph - N/A   Clear
7:53 PM 55.0 °F 43.0 °F 64% 29.99 in 10.0 mi WNW 8.1 mph - N/A   Clear
8:53 PM 54.0 °F 39.9 °F 59% 30.00 in 10.0 mi NW 10.4 mph - N/A   Clear
9:53 PM 51.1 °F 39.0 °F 63% 30.01 in 10.0 mi WNW 5.8 mph - N/A   Clear
10:53 PM 48.9 °F 37.9 °F 66% 30.00 in 10.0 mi WNW 6.9 mph - N/A   Clear